Agadir/Al Massir, Morocco

10:43 PM WET on December 04, 2016 (GMT +0000)
Al-Massira

Weather History for GMAD - April, 2013

Change the Weather History Date:

Saturday, April 13, 2013

  Actual Average Record
Temperature  
Mean Temperature 64 °F -  
Max Temperature 72 °F - - ()
Min Temperature 55 °F - - ()
Degree Days  
Heating Degree Days 2    
Growing Degree Days 14 (Base 50)    
Moisture  
Dew Point 57 °F    
Average Humidity 81    
Maximum Humidity 94    
Minimum Humidity 59    
Precipitation  
Precipitation 0.00 in - - ()
Sea Level Pressure  
Sea Level Pressure 29.97 in    
Wind  
Wind Speed 3 mph ()    
Max Wind Speed 15 mph    
Max Gust Speed -    
Visibility 4.5 miles    
Events      
T = Trace of Precipitation, MM = Missing Value Source: Averaged Metar Reports

Daily Weather History Graph

Daily Weather History Graph

Search for Another Location

Airport or City:

Trip Planner

Search our weather history database for the weather conditions in past years. The results will help you decide how hot, cold, wet, or windy it might be!

Date:

Astronomy

Apr. 13, 2013 Rise Set
Actual Time 6:12 AM WET 7:03 PM WET
Civil Twilight 5:48 AM WET 7:28 PM WET
Nautical Twilight 5:19 AM WET 7:57 PM WET
Astronomical Twilight 4:49 AM WET 8:27 PM WET
Moon 8:05 AM WET (4/13) 10:04 PM WET (4/13)
Length of Visible Light 13h 40m
Length of Day
12h 51m
Waxing Crescent, 9% of the Moon is Illuminated
Apr 13
Waxing Crescent
Apr 18
First Quarter
Apr 25
Full
May 2
Last Quarter
May 10
New

Hourly Weather History & Observations

Time (WET) Temp. Dew Point Humidity Pressure Visibility Wind Dir Wind Speed Gust Speed Precip Events Conditions
12:00 AM 60 °F 57 °F 87% 30.01 in 6 mi Calm Calm - -   Partly Cloudy
12:00 AM 60.8 °F 57.2 °F 88% 30.01 in 6.2 mi Calm Calm - N/A   Scattered Clouds
1:00 AM 59.0 °F 55.4 °F 88% 29.98 in 5.6 mi Calm Calm - N/A   Scattered Clouds
2:00 AM 57.2 °F 55.4 °F 94% 29.95 in 3.1 mi Calm Calm - N/A   Unknown
3:00 AM 56 °F 54 °F 92% 29.96 in 2 mi Calm Calm - -  
3:00 AM 57.2 °F 53.6 °F 88% 29.95 in 1.7 mi Calm Calm - N/A   Unknown
3:45 AM 55.4 °F 53.6 °F 94% 29.95 in 1.9 mi Calm Calm - N/A   Mostly Cloudy
4:00 AM 55.4 °F 53.6 °F 94% 29.95 in 1.9 mi Calm Calm - N/A   Mostly Cloudy
6:00 AM 58 °F 57 °F 94% 29.95 in 3 mi Calm Calm - -   Mostly Cloudy
6:00 AM 59.0 °F 57.2 °F 94% 29.95 in 3.1 mi Calm Calm - N/A   Mostly Cloudy
8:00 AM 60.8 °F 59.0 °F 94% 29.95 in - North - - N/A   Mostly Cloudy
9:00 AM 62 °F 58 °F 83% 29.98 in 6 mi Calm Calm - -   Mostly Cloudy
9:00 AM 62.6 °F 59.0 °F 88% 29.98 in 3.1 mi Calm Calm - N/A   Mostly Cloudy
10:00 AM 62.6 °F 59.0 °F 88% 29.98 in 3.1 mi Calm Calm - N/A   Mostly Cloudy
12:00 PM 71 °F 60 °F 59% 29.96 in 5 mi West 5.8 mph - -   Partly Cloudy
12:00 PM 71.6 °F 59.0 °F 64% 29.95 in 5.0 mi West 6.9 mph - N/A   Scattered Clouds
1:00 PM 71.6 °F 59.0 °F 64% 29.95 in 5.0 mi West 12.7 mph - N/A   Scattered Clouds
2:00 PM 69.8 °F 59.0 °F 68% 29.95 in 5.0 mi West 15.0 mph - N/A   Scattered Clouds
3:00 PM 69 °F 59 °F 62% 29.93 in 5 mi West 13.8 mph - -   Partly Cloudy
3:00 PM 69.8 °F 59.0 °F 68% 29.92 in 5.0 mi West 13.8 mph - N/A   Scattered Clouds
4:00 PM 68.0 °F 59.0 °F 73% 29.92 in 6.2 mi West 12.7 mph - N/A   Scattered Clouds
5:00 PM 68.0 °F 59.0 °F 73% 29.92 in 6.2 mi SW 10.4 mph - N/A   Scattered Clouds
6:00 PM 66 °F 57 °F 66% 29.94 in 5 mi SW 10.4 mph - -   Partly Cloudy
6:00 PM 66.2 °F 57.2 °F 73% 29.92 in 5.0 mi SW 10.4 mph - N/A   Scattered Clouds
7:00 PM 62.6 °F 57.2 °F 82% 29.95 in 5.0 mi SSW 8.1 mph - N/A   Scattered Clouds
8:00 PM 60.8 °F 55.4 °F 82% 29.98 in 5.0 mi Variable 2.3 mph - N/A   Scattered Clouds
9:00 PM 61 °F 56 °F 80% 30.03 in 5 mi Calm Calm - -   Mostly Cloudy
9:00 PM 60.8 °F 57.2 °F 88% 30.01 in 5.0 mi Calm Calm - N/A   Mostly Cloudy
10:00 PM 60.8 °F 57.2 °F 88% 30.04 in 6.2 mi Calm Calm - N/A   Mostly Cloudy
11:00 PM 62.6 °F 57.2 °F 82% 30.04 in 6.2 mi Calm Calm - N/A   Mostly Cloudy